Home > Weather > Emden > Past weeks

Flag for Germany Past Weather in Emden, Lower Saxony, Germany — Yesterday and Last 2 Weeks

Now
63 °F

Low clouds.


Feels Like: 63 °F
Forecast: 58 / 75 °F
Wind: 2 mph from North

Location: Emden-Koenigspolder

Current Time: Jul 24, 2016 at 5:14:51 AM

Latest Report: Jul 24, 2016 at 4:00 AM


Visibility: 0 mi

Pressure: 30.11 "Hg

Humidity: 99%

Dew Point: 62 °F

Location of EmdenLocation

Past Weather in Emden — Graph

°F

Emden Temperature Yesterday

Maximum temperature yesterday: 77 °F (at 3:00 PM)
Minimum temperature yesterday: 63 °F (at 1:00 AM)
Average temperature yesterday: 68 °F

High & Low Weather Summary for the Past Weeks

 TemperatureHumidityPressure
High87 °F (Jul 20, 6:00 PM)100% (Jul 22, 10:00 AM)30.25 "Hg (Jul 22, 10:00 AM)
Low54 °F (Jul 14, 3:00 AM)45% (Jul 20, 4:00 PM)29.69 "Hg (Jul 11, 4:00 AM)
Average65 °F79%30.01 "Hg
* Reported Jul 9 4:00 AM — Jul 24 4:00 AM, Emden, Weather by CustomWeather, © 2016

Note: Actual official high and low records may vary slightly from our data, if they occured in-between our weather recording intervals... More about our weather records

Advertising

Emden Weather History for the Previous 24 Hours

Scroll right to see more
 ConditionsComfort  
Time TempWeatherWind HumidityBarometerVisibility
4:00 AM
Sun, Jul 24
63 °FLow clouds.2 mph99%30.11 "Hg0 mi
3:00 AM63 °FLow clouds.N/A99%30.12 "Hg0 mi
1:00 AM63 °FLow clouds.2 mph100%30.12 "Hg0 mi
12:00 AM63 °FLow clouds.2 mph99%30.11 "Hg0 mi
10:00 PM
Sat, Jul 23
66 °FFog.5 mph95%30.11 "Hg2 mi
9:00 PM68 °FPartly sunny.3 mph90%30.10 "Hg3 mi
7:00 PM74 °FOvercast.N/A77%30.08 "Hg4 mi
6:00 PM74 °FSunny.6 mph78%30.09 "Hg7 mi
4:00 PM76 °FPartly sunny.5 mph73%30.09 "Hg8 mi
3:00 PM77 °FOvercast.2 mph69%30.09 "Hg8 mi
1:00 PM73 °FSunny.N/A74%30.10 "Hg7 mi
12:00 PM72 °FPartly sunny.1 mph76%30.10 "Hg9 mi
10:00 AM65 °FLow clouds.2 mph88%30.09 "Hg6 mi
9:00 AM64 °FFog.2 mph94%30.09 "Hg4 mi
7:00 AM63 °FFog.N/A95%30.08 "Hg3 mi
6:00 AM63 °FFog.3 mph95%30.08 "Hg3 mi
Weather by CustomWeather, © 2016

See weather overviewHow to use our weather pages